Location: Beadle
(51.4667°N, 109.0000°W)
Time: 09:28:41
(UTC+00:00)

deb Explorer IX - Pass Details

Date: 01 June 2022
Orbit: 535 x 1068 km, 38.8° (Epoch: 04 July)

Event Time Altitude Azimuth Distance (km) Brightness Sun altitude
Rises 21:09:44 0° 261° (W) 3,740 ? 53.1°
Reaches altitude 10° 21:14:19 10° 235° (SW) 2,682 ? 52.6°
Maximum altitude 21:16:46 12° 212° (SSW) 2,446 ? 52.3°
Drops below altitude 10° 21:19:08 10° 189° (S) 2,542 ? 52.0°
Sets 21:23:12 0° 161° (SSE) 3,337 ? 51.5°
